9Z4CT-3 Weather Reports


time (UTC)temp
C
wind
direction
speed
KPH
gust
KPH
rain 1hr
cm
rain 24hr
cm
rain mn
cm
humidity
%
barometer
mb
20260505082317 22 129 0.0 3.2 0.00 0.00 0.00 88 1013.3
20260505081338 22 127 0.0 3.2 0.00 0.00 0.00 88 1013.2
20260505080323 22 128 0.0 4.8 0.00 0.00 0.00 88 1013.2
20260505075320 22 130 0.0 0.0 0.00 0.00 0.00 88 1013.1
20260505074324 22 130 0.0 0.0 0.00 0.00 0.00 88 1013.2
20260505073328 22 130 0.0 0.0 0.00 0.00 0.00 88 1013.1
20260505072327 22 130 0.0 0.0 0.00 0.00 0.00 88 1013.1
20260505071330 22 130 0.0 0.0 0.00 0.00 0.00 88 1013.1
20260505070313 22 130 0.0 0.0 0.00 0.00 0.00 88 1013.2
20260505065313 22 130 0.0 0.0 0.00 0.00 0.00 88 1013.1
20260505064317 22 130 0.0 0.0 0.00 0.00 0.00 88 1013.1
20260505063316 22 130 0.0 0.0 0.00 0.00 0.00 88 1013.1
20260505062337 22 130 0.0 1.6 0.00 0.00 0.00 88 1013.2
20260505061340 22 130 0.0 3.2 0.00 0.00 0.00 88 1013.1
20260505060320 22 131 0.0 3.2 0.00 0.00 0.00 87 1013.2
20260505055316 22 131 0.0 3.2 0.00 0.00 0.00 87 1013.4
20260505054318 22 136 0.0 0.0 0.00 0.00 0.00 87 1013.5
20260505053319 22 136 0.0 0.0 0.00 0.00 0.00 87 1013.6
20260505052321 22 136 0.0 0.0 0.00 0.00 0.00 87 1013.5
20260505051343 22 136 0.0 0.0 0.00 0.00 0.00 87 1013.6
20260505050324 22 136 0.0 1.6 0.00 0.00 0.00 87 1013.6
20260505041326 22 148 1.6 4.8 0.00 0.00 0.00 86 1014.0
20260505040327 22 148 0.0 0.0 0.00 0.00 0.00 86 1014.0
20260505035319 22 148 3.2 4.8 0.00 0.00 0.00 86 1014.0
20260505034345 23 153 1.6 3.2 0.00 0.00 0.00 86 1014.1
20260505033327 23 153 0.0 0.0 0.00 0.00 0.00 86 1014.3
20260505032314 23 153 1.6 3.2 0.00 0.00 0.00 85 1014.2
20260505031318 23 157 0.0 3.2 0.00 0.00 0.00 85 1014.2
20260505030321 23 157 1.6 1.6 0.00 0.00 0.00 85 1014.3
20260505025319 23 157 0.0 1.6 0.00 0.00 0.00 85 1014.4
20260505024323 23 157 0.0 1.6 0.00 0.00 0.00 85 1014.3
20260505023349 23 157 0.0 0.0 0.00 0.00 0.00 85 1014.4
20260505022352 23 157 0.0 4.8 0.00 0.00 0.00 85 1014.4
20260505021335 23 185 0.0 3.2 0.00 0.00 0.00 84 1014.4
20260505020318 23 185 1.6 4.8 0.00 0.00 0.00 84 1014.3
20260505015321 23 196 1.6 3.2 0.00 0.00 0.00 84 1014.3
20260505014326 23 198 0.0 3.2 0.00 0.00 0.00 83 1014.2
20260505013331 23 200 0.0 3.2 0.00 0.00 0.00 83 1014.1
20260505012315 24 200 0.0 1.6 0.00 0.00 0.00 83 1014.1
20260505011316 24 200 0.0 1.6 0.00 0.00 0.00 82 1013.9
20260505010318 24 200 0.0 1.6 0.00 0.00 0.00 82 1014.0
20260505005339 24 200 0.0 1.6 0.00 0.00 0.00 82 1013.8
20260505004323 25 200 0.0 3.2 0.00 0.00 0.00 82 1013.7
20260505003347 25 201 0.0 3.2 0.00 0.00 0.00 81 1013.6
20260505002341 25 201 0.0 3.2 0.00 0.00 0.00 81 1013.4
20260505001321 25 202 1.6 4.8 0.00 0.00 0.00 80 1013.3
20260505000324 25 205 0.0 1.6 0.00 0.00 0.00 80 1013.2
20260504235326 25 99 0.0 3.2 0.00 0.00 0.00 79 1013.1
20260504234323 25 98 0.0 3.2 0.00 0.00 0.00 79 1013.1
20260504233328 26 98 0.0 3.2 0.00 0.00 0.00 78 1013.0
20260504232316 26 98 0.0 0.0 0.00 0.00 0.00 77 1012.8
20260504231314 26 98 0.0 3.2 0.00 0.00 0.00 77 1012.7
20260504230319 26 34 0.0 3.2 0.00 0.00 0.00 76 1012.7
20260504225321 27 38 1.6 8.0 0.00 0.00 0.00 75 1012.6
20260504224341 27 122 1.6 6.4 0.00 0.00 0.00 74 1012.5
20260504223322 27 109 3.2 9.7 0.00 0.00 0.00 73 1012.4
20260504222324 27 155 1.6 4.8 0.00 0.00 0.00 71 1012.3
20260504221326 28 102 3.2 12.9 0.00 0.00 0.00 70 1012.2
20260504220331 28 113 3.2 11.3 0.00 0.00 0.00 69 1012.1
20260504215313 28 119 3.2 8.0 0.00 0.00 0.00 68 1011.9
20260504214315 29 128 1.6 4.8 0.00 0.00 0.00 67 1011.9
20260504213336 30 105 0.0 4.8 0.00 0.00 0.00 66 1011.9
20260504212341 30 145 1.6 11.3 0.00 0.00 0.00 65 1011.7
20260504211322 30 105 3.2 12.9 0.00 0.00 0.00 65 1011.7
20260504210322 31 95 4.8 12.9 0.00 0.00 0.00 63 1011.6
20260504192325 33 150 4.8 16.1 0.00 0.00 0.00 58 1012.2
20260504191325 33 254 3.2 14.5 0.00 0.00 0.00 58 1012.2
20260504190344 33 144 4.8 14.5 0.00 0.00 0.00 57 1012.2
20260504185324 33 121 1.6 11.3 0.00 0.00 0.00 59 1012.3
20260504184326 33 148 6.4 17.7 0.00 0.00 0.00 57 1012.4
20260504183331 33 196 3.2 11.3 0.00 0.00 0.00 57 1012.5
20260504182332 33 210 3.2 11.3 0.00 0.00 0.00 59 1012.6
20260504181329 32 244 3.2 9.7 0.00 0.00 0.00 60 1012.8
20260504180322 33 190 4.8 12.9 0.00 0.00 0.00 60 1012.8
20260504175318 33 162 3.2 14.5 0.00 0.00 0.00 61 1013.0
20260504174337 33 113 4.8 14.5 0.00 0.00 0.00 57 1013.2
20260504173317 33 174 6.4 11.3 0.00 0.00 0.00 58 1013.3
20260504172319 33 165 1.6 11.3 0.00 0.00 0.00 56 1013.4
20260504171317 33 113 3.2 14.5 0.00 0.00 0.00 57 1013.6
20260504170321 33 192 3.2 16.1 0.00 0.00 0.00 57 1013.8
20260504160332 33 153 3.2 11.3 0.00 0.00 0.00 60 1014.7
20260504150320 32 115 6.4 20.9 0.00 0.00 0.00 60 1014.9
20260504140319 31 135 6.4 16.1 0.00 0.00 0.00 65 1015.0
20260504130341 28 182 1.6 14.5 0.00 0.00 0.00 73 1015.0
20260504110353 23 107 0.0 4.8 0.00 0.00 0.00 89 1014.2
20260504100315 22 103 0.0 0.0 0.00 0.00 0.00 89 1013.8